Sie sind auf Seite 1von 7

TempLogger - Tabla

Fecha T. D. E. T. Salón T. D. R. P. Salón P. D. R. Humedad


2018-09-24 18:00:17 24.5 25.51 25.3 1019.44 1018.8 63.3
2018-09-24 18:05:17 24.6 25.53 25.31 1019.44 1018.78 63.4
2018-09-24 18:10:17 24.6 25.56 25.32 1019.37 1018.72 63.4
2018-09-24 18:15:17 24.6 25.59 25.33 1019.28 1018.69 63.3
2018-09-24 18:20:17 24.6 25.62 25.32 1019.31 1018.69 63.3
2018-09-24 18:25:17 24.6 25.64 25.33 1019.26 1018.63 63.3
2018-09-24 18:30:17 24.6 25.68 25.36 1019.25 1018.61 63.3
2018-09-24 18:35:10 24.6 25.72 25.35 1019.27 1018.56 63.3
2018-09-24 18:40:18 24.6 25.76 25.37 1019.16 1018.54 63.3
2018-09-24 18:45:17 24.7 25.78 25.38 1019.13 1018.48 63.3
2018-09-24 18:50:17 24.7 25.79 25.39 1019.13 1018.52 63.4
2018-09-24 18:55:17 24.7 25.82 25.41 1019.15 1018.53 63.4
2018-09-24 19:00:17 24.7 25.82 25.42 1019.16 1018.57 63.4
2018-09-24 19:05:17 24.7 25.83 25.44 1019.22 1018.6 63.4
2018-09-24 19:10:17 24.7 25.83 25.45 1019.23 1018.6 63.4
2018-09-24 19:15:18 24.7 25.82 25.45 1019.22 1018.6 63.4
2018-09-24 19:20:17 24.7 25.8 25.46 1019.27 1018.63 63.4
2018-09-24 19:25:17 24.8 25.73 25.48 1019.35 1018.69 63.4
2018-09-24 19:30:17 24.8 25.62 25.49 1019.42 1018.75 63.4
2018-09-24 19:35:17 24.8 25.51 25.48 1019.51 1018.77 63.4
2018-09-24 19:40:17 24.8 25.4 25.49 1019.53 1018.83 63.4
2018-09-24 19:45:17 24.8 25.3 25.49 1019.56 1018.85 63.4
2018-09-24 19:50:17 24.8 25.21 25.49 1019.68 1018.84 63.4
2018-09-24 19:55:17 24.8 25.13 25.51 1019.7 1018.97 63.5
2018-09-24 20:00:17 24.8 25.07 25.51 1019.83 1019.04 63.5
2018-09-24 20:05:18 24.8 25.02 25.52 1019.88 1019.04 63.5
2018-09-24 20:10:17 24.8 24.96 25.52 1019.84 1019.05 63.5
2018-09-24 20:15:17 24.8 24.91 25.52 1019.91 1019.01 63.5
2018-09-24 20:20:17 24.8 24.86 25.52 1019.85 1019.04 63.5
2018-09-24 20:25:17 24.8 24.81 25.54 1019.86 1019.06 63.5
2018-09-24 20:30:17 24.8 24.78 25.53 1019.86 1019.03 63.5
2018-09-24 20:35:18 24.8 24.74 25.53 1019.91 1019 63.6
2018-09-24 20:40:17 24.8 24.66 25.53 1019.83 1019.05 63.6
2018-09-24 20:45:17 24.8 24.66 25.55 1019.98 1019.06 63.6
2018-09-24 20:50:17 24.8 24.62 25.55 1020.01 1019.1 63.6
2018-09-24 20:55:17 24.8 24.58 25.55 1020.05 1019.16 63.6
2018-09-24 21:00:15 24.8 24.57 25.56 1020.15 1019.25 63.6
2018-09-24 21:05:17 24.8 24.54 25.56 1020.1 1019.22 63.6
2018-09-24 21:10:17 24.9 24.51 25.55 1020.15 1019.22 63.5
2018-09-24 21:15:17 24.9 24.49 25.57 1020.21 1019.33 63.6
2018-09-24 21:20:17 24.9 24.48 25.57 1020.28 1019.37 63.5
2018-09-24 21:25:17 24.9 24.46 25.58 1020.3 1019.4 63.5
2018-09-24 21:30:17 24.9 24.43 25.57 1020.37 1019.42 63.5
2018-09-24 21:35:17 24.9 24.41 25.58 1020.38 1019.45 63.5
2018-09-24 21:40:17 24.9 24.4 25.57 1020.42 1019.47 63.5
Fecha T. D. E. T. Salón T. D. R. P. Salón P. D. R. Humedad
2018-09-24 21:45:17 24.9 24.36 25.59 1020.41 1019.52 63.5
2018-09-24 21:50:17 24.9 24.35 25.57 1020.48 1019.54 63.5
2018-09-24 21:55:17 24.9 24.32 25.59 1020.47 1019.56 63.5
2018-09-24 22:00:17 24.9 24.3 25.59 1020.52 1019.6 63.5
2018-09-24 22:05:17 24.9 24.29 25.61 1020.57 1019.64 63.5
2018-09-24 22:10:18 24.9 24.26 25.6 1020.63 1019.64 63.5
2018-09-24 22:15:18 24.9 24.25 25.61 1020.65 1019.74 63.5
2018-09-24 22:20:17 24.9 24.24 25.59 1020.72 1019.68 63.5
2018-09-24 22:25:17 24.9 24.22 25.61 1020.7 1019.76 63.5
2018-09-24 22:30:17 24.9 24.2 25.6 1020.71 1019.77 63.5
2018-09-24 22:35:18 24.9 24.18 25.62 1020.77 1019.81 63.5
2018-09-24 22:40:18 24.9 24.17 25.62 1020.91 1019.9 63.5
2018-09-24 22:45:17 24.9 24.14 25.63 1020.91 1019.94 63.6
2018-09-24 22:50:17 24.9 24.13 25.63 1021.01 1020.02 63.6
2018-09-24 22:55:17 24.9 24.12 25.63 1021.11 1020.1 63.6
2018-09-24 23:00:17 24.9 24.11 25.62 1021.13 1020.15 63.6
2018-09-24 23:05:17 24.9 24.1 25.63 1021.17 1020.18 63.5
2018-09-24 23:10:17 24.9 24.09 25.62 1021.17 1020.15 63.5
2018-09-24 23:15:17 24.9 24.07 25.62 1021.22 1020.2 63.5
2018-09-24 23:20:17 24.9 24.06 25.63 1021.29 1020.26 63.5
2018-09-24 23:25:17 24.9 24.04 25.63 1021.35 1020.32 63.5
2018-09-24 23:30:17 24.9 24.04 25.63 1021.37 1020.33 63.5
2018-09-24 23:35:17 24.9 24.04 25.62 1021.35 1020.31 63.5
2018-09-24 23:40:14 24.9 24.02 25.63 1021.36 1020.28 63.4
2018-09-24 23:45:08 24.9 24.01 25.63 1021.33 1020.32 63.4
2018-09-24 23:50:07 24.9 23.99 25.63 1021.37 1020.33 63.4
2018-09-24 23:55:17 24.9 23.98 25.63 1021.38 1020.32 63.4
2018-09-25 00:00:19 24.9 23.96 25.62 1021.36 1020.33 63.4
2018-09-25 00:05:17 24.9 23.95 25.62 1021.37 1020.33 63.4
2018-09-25 00:10:17 24.9 23.93 25.63 1021.33 1020.32 63.3
2018-09-25 00:15:17 24.9 23.93 25.62 1021.34 1020.31 63.3
2018-09-25 00:20:17 24.9 23.91 25.63 1021.3 1020.28 63.3
2018-09-25 00:25:17 24.9 23.9 25.63 1021.28 1020.24 63.3
2018-09-25 00:30:17 24.9 23.89 25.63 1021.23 1020.18 63.3
2018-09-25 00:35:17 24.9 23.89 25.62 1021.24 1020.17 63.2
2018-09-25 00:40:17 24.9 23.88 25.62 1021.2 1020.16 63.2
2018-09-25 00:45:17 24.9 23.85 25.62 1021.18 1020.11 63.2
2018-09-25 00:50:17 24.9 23.85 25.63 1021.14 1020.09 63.2
2018-09-25 00:55:17 24.9 23.92 25.63 1021.14 1020.11 63.2
2018-09-25 01:00:17 24.9 23.87 25.61 1021.12 1020.07 63.2
2018-09-25 01:05:17 24.9 23.85 25.62 1021.15 1020.09 63.2
2018-09-25 01:10:17 24.9 23.83 25.62 1021.14 1020.05 63.2
2018-09-25 01:15:17 24.9 23.8 25.61 1021.13 1020.1 63.2
2018-09-25 01:20:17 24.9 23.8 25.65 1021.16 1020.08 63.2
2018-09-25 01:25:17 24.9 23.8 25.62 1021.12 1020.07 63.2
2018-09-25 01:30:17 24.9 23.79 25.62 1021.15 1020.08 63.2
2018-09-25 01:35:17 24.9 23.79 25.61 1021.15 1020.05 63.2
Fecha T. D. E. T. Salón T. D. R. P. Salón P. D. R. Humedad
2018-09-25 01:40:18 24.9 23.78 25.63 1021.16 1020.06 63.2
2018-09-25 01:45:17 24.9 23.77 25.61 1021.14 1020.08 63.2
2018-09-25 01:50:17 24.9 23.76 25.62 1021.14 1020.05 63.1
2018-09-25 01:55:17 24.9 23.75 25.61 1021.07 1020.05 63.1
2018-09-25 02:00:17 24.9 23.82 25.6 1021.02 1020.01 63.1
2018-09-25 02:05:17 24.9 23.78 25.59 1021.1 1019.96 63.2
2018-09-25 02:10:17 24.9 23.76 25.6 1021.09 1019.99 63.2
2018-09-25 02:15:17 24.9 23.75 25.59 1021.1 1019.98 63.2
2018-09-25 02:20:17 24.9 23.74 25.6 1021.03 1019.94 63.1
2018-09-25 02:25:17 24.9 23.72 25.6 1020.99 1019.86 63.1
2018-09-25 02:30:17 24.9 23.7 25.6 1020.96 1019.87 63.1
2018-09-25 02:35:17 24.9 23.68 25.6 1020.98 1019.84 63.1
2018-09-25 02:40:17 24.9 23.68 25.6 1020.97 1019.84 63.1
2018-09-25 02:45:17 24.9 23.67 25.6 1020.98 1019.83 63.1
2018-09-25 02:50:17 24.9 23.64 25.59 1020.91 1019.84 63.1
2018-09-25 02:55:17 24.9 23.62 25.6 1020.88 1019.84 63.1
2018-09-25 03:00:17 24.9 23.63 25.59 1020.83 1019.75 63.1
2018-09-25 03:05:17 24.9 23.62 25.6 1020.79 1019.72 63.1
2018-09-25 03:10:21 24.9 23.62 25.59 1020.73 1019.63 63.1
2018-09-25 03:15:17 24.8 23.59 25.58 1020.7 1019.56 63
2018-09-25 03:20:17 24.9 23.6 25.58 1020.71 1019.56 63
2018-09-25 03:25:17 24.8 23.59 25.57 1020.65 1019.55 63
2018-09-25 03:30:17 24.9 23.57 25.58 1020.61 1019.5 63
2018-09-25 03:35:17 24.9 23.58 25.57 1020.66 1019.47 63
2018-09-25 03:40:21 24.9 23.56 25.57 1020.64 1019.51 63.1
2018-09-25 03:45:17 24.8 23.54 25.56 1020.68 1019.51 63
2018-09-25 03:50:17 24.9 23.55 25.56 1020.76 1019.57 63
2018-09-25 03:55:07 24.8 23.53 25.57 1020.76 1019.64 63
2018-09-25 04:00:17 24.8 23.52 25.57 1020.73 1019.67 63
2018-09-25 04:05:17 24.8 23.52 25.56 1020.78 1019.66 63
2018-09-25 04:10:21 24.8 23.5 25.56 1020.82 1019.71 63
2018-09-25 04:15:17 24.8 23.49 25.56 1020.84 1019.71 63
2018-09-25 04:20:17 24.8 23.49 25.55 1020.94 1019.78 63
2018-09-25 04:25:17 24.8 23.48 25.55 1020.9 1019.79 63
2018-09-25 04:30:17 24.8 23.46 25.55 1020.85 1019.74 63
2018-09-25 04:35:17 24.8 23.44 25.54 1020.86 1019.74 63
2018-09-25 04:40:21 24.8 23.43 25.54 1020.84 1019.73 63
2018-09-25 04:45:17 24.8 23.42 25.54 1020.83 1019.73 63
2018-09-25 04:50:17 24.8 23.4 25.53 1020.82 1019.68 63
2018-09-25 04:55:17 24.8 23.4 25.53 1020.77 1019.63 62.9
2018-09-25 05:00:18 24.8 23.38 25.52 1020.73 1019.62 62.9
2018-09-25 05:05:17 24.8 23.37 25.52 1020.67 1019.6 62.9
2018-09-25 05:10:21 24.8 23.36 25.52 1020.65 1019.54 62.9
2018-09-25 05:15:17 24.8 23.35 25.52 1020.67 1019.5 62.9
2018-09-25 05:20:17 24.8 23.32 25.52 1020.65 1019.5 62.9
2018-09-25 05:25:17 24.8 23.32 25.5 1020.64 1019.47 62.9
2018-09-25 05:30:17 24.8 23.31 25.5 1020.69 1019.5 62.9
Fecha T. D. E. T. Salón T. D. R. P. Salón P. D. R. Humedad
2018-09-25 05:35:17 24.7 23.31 25.5 1020.68 1019.54 62.9
2018-09-25 05:40:21 24.7 23.29 25.49 1020.62 1019.49 62.9
2018-09-25 05:45:17 24.7 23.28 25.49 1020.58 1019.42 62.9
2018-09-25 05:50:17 24.7 23.27 25.48 1020.62 1019.46 62.8
2018-09-25 05:55:17 24.7 23.27 25.47 1020.5 1019.4 62.8
2018-09-25 06:00:17 24.7 23.26 25.47 1020.46 1019.34 62.8
2018-09-25 06:05:17 24.7 23.26 25.47 1020.48 1019.34 62.8
2018-09-25 06:10:21 24.7 23.25 25.46 1020.47 1019.3 62.8
2018-09-25 06:15:17 24.7 23.24 25.46 1020.45 1019.29 62.8
2018-09-25 06:20:17 24.7 23.23 25.45 1020.47 1019.26 62.8
2018-09-25 06:25:17 24.7 23.22 25.45 1020.46 1019.36 62.8
2018-09-25 06:30:17 24.7 23.22 25.45 1020.56 1019.4 62.8
2018-09-25 06:35:17 24.6 23.21 25.44 1020.56 1019.5 62.8
2018-09-25 06:40:21 24.7 23.21 25.45 1020.64 1019.54 62.8
2018-09-25 06:45:17 24.7 23.19 25.42 1020.68 1019.55 62.7
2018-09-25 06:50:17 24.7 23.18 25.43 1020.69 1019.6 62.7
2018-09-25 06:55:17 24.7 23.17 25.41 1020.76 1019.58 62.7
2018-09-25 07:00:17 24.6 23.16 25.41 1020.79 1019.63 62.7
2018-09-25 07:05:17 24.6 23.15 25.4 1020.86 1019.7 62.7
2018-09-25 07:10:21 24.6 23.14 25.41 1020.88 1019.7 62.7
2018-09-25 07:15:17 24.6 23.13 25.4 1020.87 1019.7 62.7
2018-09-25 07:20:17 24.6 23.12 25.4 1020.96 1019.74 62.7
2018-09-25 07:25:17 24.6 23.1 25.38 1020.92 1019.78 62.6
2018-09-25 07:30:17 24.6 23.1 25.38 1021.02 1019.83 62.6
2018-09-25 07:35:17 24.6 23.09 25.38 1021.12 1019.89 62.6
2018-09-25 07:40:17 24.6 23.08 25.37 1021.16 1019.96 62.6
2018-09-25 07:45:17 24.6 23.05 25.37 1021.23 1019.99 62.6
2018-09-25 07:50:06 24.6 23.05 25.36 1021.27 1020.08 62.6
2018-09-25 07:55:17 24.6 23.05 25.35 1021.31 1020.09 62.6
2018-09-25 08:00:17 24.6 23.03 25.35 1021.37 1020.15 62.6
2018-09-25 08:05:17 24.6 23.04 25.34 1021.37 1020.2 62.6
2018-09-25 08:10:17 24.6 23.03 25.34 1021.35 1020.13 62.6
2018-09-25 08:15:17 24.6 23.02 25.33 1021.35 1020.16 62.6
2018-09-25 08:20:17 24.6 23.01 25.33 1021.4 1020.27 62.6
2018-09-25 08:25:17 24.6 23.03 25.32 1021.47 1020.35 62.6
2018-09-25 08:30:17 24.6 23.03 25.31 1021.58 1020.43 62.6
2018-09-25 08:35:17 24.6 23.04 25.31 1021.63 1020.49 62.5
2018-09-25 08:40:17 24.5 23.03 25.3 1021.68 1020.57 62.5
2018-09-25 08:45:17 24.5 23.04 25.31 1021.78 1020.7 62.5
2018-09-25 08:50:17 24.5 23.05 25.3 1021.82 1020.66 62.5
2018-09-25 08:55:18 24.5 23.06 25.29 1021.83 1020.73 62.5
2018-09-25 09:00:17 24.5 23.07 25.29 1021.89 1020.71 62.5
2018-09-25 09:05:17 24.5 23.08 25.39 1021.84 1020.7 62.5
2018-09-25 09:10:17 24.5 23.08 25.35 1021.9 1020.76 62.4
2018-09-25 09:15:17 24.5 23.1 25.29 1021.98 1020.82 62.5
2018-09-25 09:20:17 24.5 23.1 25.26 1022.01 1020.82 62.5
2018-09-25 09:25:17 24.5 23.1 25.27 1022.08 1020.92 62.5
Fecha T. D. E. T. Salón T. D. R. P. Salón P. D. R. Humedad
2018-09-25 09:30:17 24.5 23.11 25.26 1022.14 1021.01 62.4
2018-09-25 09:35:17 24.5 23.12 25.25 1022.18 1021.04 62.5
2018-09-25 09:40:21 24.4 23.12 25.26 1022.24 1021.08 62.5
2018-09-25 09:45:17 24.5 23.13 25.25 1022.31 1021.14 62.4
2018-09-25 09:50:17 24.4 23.15 25.24 1022.38 1021.2 62.4
2018-09-25 09:55:15 24.4 23.17 25.22 1022.3 1021.15 62.4
2018-09-25 10:00:17 24.4 23.2 25.24 1022.38 1021.21 62.4
2018-09-25 10:05:17 24.4 23.22 25.24 1022.45 1021.26 62.4
2018-09-25 10:10:21 24.4 23.25 25.23 1022.42 1021.31 62.4
2018-09-25 10:15:17 24.4 23.27 25.22 1022.57 1021.39 62.3
2018-09-25 10:20:17 24.4 23.3 25.22 1022.49 1021.44 62.3
2018-09-25 10:25:17 24.4 23.34 25.21 1022.55 1021.45 62.3
2018-09-25 10:30:17 24.4 23.37 25.21 1022.59 1021.45 62.3
2018-09-25 10:35:17 24.4 23.41 25.2 1022.55 1021.52 62.3
2018-09-25 10:40:21 24.4 23.44 25.2 1022.62 1021.5 62.3
2018-09-25 10:50:17 24.4 23.47 25.18 1022.63 1021.66 62.2
2018-09-25 10:55:17 24.4 23.61 25.18 1022.77 1021.74 62.2
2018-09-25 11:00:17 24.4 23.61 25.18 1022.78 1021.74 62.2
2018-09-25 11:05:17 24.4 23.66 25.29 1022.83 1021.79 62.2
2018-09-25 11:10:21 24.4 23.69 25.22 1022.87 1021.81 62.2
2018-09-25 11:15:17 24.4 23.7 25.16 1022.87 1021.8 62.2
2018-09-25 11:20:17 24.4 23.74 25.18 1022.85 1021.8 62.2
2018-09-25 11:25:17 24.3 23.75 25.16 1022.86 1021.88 62.2
2018-09-25 11:30:17 24.3 23.8 25.16 1022.84 1021.91 62.2
2018-09-25 11:35:17 24.3 23.82 25.15 1022.86 1021.85 62.2
2018-09-25 11:40:17 24.3 23.85 25.14 1022.87 1021.87 62.2
2018-09-25 11:45:17 24.3 23.87 25.14 1022.88 1021.89 62.2
2018-09-25 11:50:17 24.3 23.9 25.14 1022.92 1021.89 62.2
2018-09-25 11:55:18 24.3 23.92 25.13 1022.94 1021.9 62.2
2018-09-25 12:00:17 24.3 23.95 25.12 1022.89 1021.92 62.2
2018-09-25 12:05:15 24.3 23.98 25.12 1022.95 1021.93 62.1
2018-09-25 12:10:21 24.3 23.99 25.13 1022.95 1021.98 62.1
2018-09-25 12:15:17 24.3 24.02 25.13 1022.98 1022.03 62.2
2018-09-25 12:20:17 24.3 24.03 25.12 1023 1021.99 62.2
2018-09-25 12:25:17 24.3 24.05 25.1 1022.93 1021.96 62.2
2018-09-25 12:30:13 24.3 24.06 25.12 1022.93 1022.02 62.2
2018-09-25 12:35:17 24.3 24.08 25.12 1022.93 1021.99 62.2
2018-09-25 12:40:21 24.3 24.1 25.11 1022.93 1021.96 62.2
2018-09-25 12:45:17 24.3 24.12 25.11 1022.9 1021.92 62.2
2018-09-25 12:50:14 24.3 24.15 25.12 1022.92 1021.95 62.2
2018-09-25 12:55:17 24.3 24.16 25.11 1022.9 1021.99 62.2
2018-09-25 13:00:17 24.3 24.19 25.11 1022.86 1021.93 62.2
2018-09-25 13:05:18 24.3 24.2 25.12 1022.92 1022.01 62.2
2018-09-25 13:10:05 24.3 24.22 25.13 1022.95 1022 62.2
2018-09-25 13:15:18 24.3 24.26 25.12 1022.94 1021.98 62.2
2018-09-25 13:20:04 24.3 24.27 25.1 1022.88 1021.95 62.2
2018-09-25 13:25:17 24.3 24.3 25.12 1022.87 1021.9 62.2
Fecha T. D. E. T. Salón T. D. R. P. Salón P. D. R. Humedad
2018-09-25 13:30:06 24.3 24.33 25.12 1022.82 1021.92 62.2
2018-09-25 13:35:13 24.3 24.33 25.12 1022.78 1021.9 62.2
2018-09-25 13:40:17 24.3 24.37 25.11 1022.78 1021.84 62.2
2018-09-25 13:45:13 24.3 24.39 25.11 1022.76 1021.82 62.3
2018-09-25 13:50:17 24.3 24.42 25.13 1022.75 1021.84 62.3
2018-09-25 13:55:14 24.3 24.43 25.14 1022.75 1021.79 62.3
2018-09-25 14:00:17 24.3 24.45 25.13 1022.72 1021.8 62.3
2018-09-25 14:05:17 24.3 24.47 25.14 1022.58 1021.73 62.4
2018-09-25 14:10:17 24.3 24.47 25.15 1022.54 1021.66 62.4
2018-09-25 14:15:18 24.3 24.51 25.16 1022.54 1021.66 62.4
2018-09-25 14:20:10 24.3 24.53 25.16 1022.59 1021.61 62.4
2018-09-25 14:25:17 24.3 24.54 25.15 1022.45 1021.51 62.4
2018-09-25 14:30:17 24.3 24.56 25.16 1022.42 1021.51 62.4
2018-09-25 14:35:17 24.3 24.59 25.15 1022.38 1021.47 62.4
2018-09-25 14:40:05 24.3 24.61 25.14 1022.29 1021.34 62.4
2018-09-25 14:45:17 24.3 24.63 25.15 1022.23 1021.27 62.5
2018-09-25 14:50:14 24.3 24.66 25.15 1022.2 1021.26 62.5
2018-09-25 14:55:17 24.3 24.66 25.16 1022.11 1021.22 62.5
2018-09-25 15:00:16 24.3 24.69 25.16 1021.97 1021.1 62.5
2018-09-25 15:05:13 24.4 24.71 25.17 1021.94 1021.05 62.6
2018-09-25 15:10:16 24.4 24.73 25.19 1021.91 1021 62.6
2018-09-25 15:15:16 24.4 24.77 25.18 1021.75 1020.94 62.6
2018-09-25 15:20:13 24.4 24.79 25.19 1021.72 1020.88 62.6
2018-09-25 15:25:16 24.4 24.81 25.2 1021.69 1020.83 62.6
2018-09-25 15:30:05 24.4 24.83 25.19 1021.62 1020.76 62.6
2018-09-25 15:35:11 24.4 24.84 25.2 1021.58 1020.76 62.7
2018-09-25 15:40:17 24.4 24.85 25.2 1021.54 1020.73 62.7
2018-09-25 15:45:17 24.4 24.88 25.2 1021.47 1020.69 62.7
2018-09-25 15:50:17 24.4 24.9 25.21 1021.46 1020.69 62.7
2018-09-25 15:55:17 24.4 24.91 25.21 1021.45 1020.68 62.7
2018-09-25 16:00:17 24.4 24.94 25.21 1021.36 1020.61 62.7
2018-09-25 16:05:13 24.4 24.95 25.21 1021.35 1020.53 62.7
2018-09-25 16:10:09 24.4 24.97 25.21 1021.3 1020.51 62.8
2018-09-25 16:15:17 24.4 25 25.21 1021.34 1020.46 62.8
2018-09-25 16:20:17 24.4 25 25.23 1021.27 1020.45 62.8
2018-09-25 16:25:17 24.4 25.03 25.22 1021.23 1020.46 62.8
2018-09-25 16:30:17 24.4 25.05 25.23 1021.23 1020.43 62.9
2018-09-25 16:35:17 24.4 25.06 25.24 1021.25 1020.37 62.9
2018-09-25 16:40:17 24.5 25.08 25.23 1021.07 1020.31 62.9
2018-09-25 16:45:17 24.5 25.09 25.25 1021.11 1020.31 63
2018-09-25 16:50:17 24.5 25.12 25.25 1021.12 1020.27 63
2018-09-25 16:55:17 24.5 25.15 25.25 1021.04 1020.26 63
2018-09-25 17:00:17 24.5 25.18 25.26 1021.1 1020.31 63
2018-09-25 17:05:17 24.5 25.22 25.27 1021.1 1020.33 63
2018-09-25 17:10:17 24.5 25.22 25.27 1021.13 1020.35 63
2018-09-25 17:15:17 24.5 25.15 25.29 1021.12 1020.32 63
2018-09-25 17:20:17 24.5 25.22 25.31 1021.08 1020.31 63
Fecha T. D. E. T. Salón T. D. R. P. Salón P. D. R. Humedad
2018-09-25 17:25:17 24.5 25.31 25.3 1021.12 1020.28 63.1
2018-09-25 17:30:17 24.5 25.44 25.31 1021.17 1020.34 63.1
2018-09-25 17:35:17 24.5 25.52 25.31 1021.09 1020.37 63.1
2018-09-25 17:40:17 24.6 25.54 25.31 1021.06 1020.26 63.1
2018-09-25 17:45:17 24.6 25.59 25.32 1021.04 1020.33 63.2
2018-09-25 17:50:17 24.6 25.66 25.32 1021.08 1020.32 63.2
2018-09-25 17:55:18 24.6 25.62 25.34 1021.16 1020.41 63.2